| time (UTC) | temp F | wind direction | speed MPH | gust MPH | rain 1hr in | rain 24hr in | rain mn in | humidity % | barometer mb |
| 20260509191326 | 86 | 263 | 6.0 | 12.0 | 0.00 | 0.00 | 0.00 | 81 | 1015.5 |
| 20260509190332 | 87 | 296 | 6.0 | 13.0 | 0.00 | 0.00 | 0.00 | 80 | 1015.5 |
| 20260509185335 | 88 | 260 | 5.0 | 11.0 | 0.00 | 0.00 | 0.00 | 80 | 1015.5 |
| 20260509184333 | 87 | 300 | 6.0 | 14.0 | 0.00 | 0.00 | 0.00 | 80 | 1015.6 |
| 20260509183328 | 86 | 272 | 9.0 | 14.0 | 0.00 | 0.00 | 0.00 | 79 | 1015.6 |
| 20260509182343 | 87 | 281 | 7.0 | 12.0 | 0.00 | 0.00 | 0.00 | 79 | 1015.7 |
| 20260509181338 | 87 | 249 | 8.0 | 14.0 | 0.00 | 0.00 | 0.00 | 77 | 1015.9 |
| 20260509180347 | 87 | 234 | 5.0 | 11.0 | 0.00 | 0.00 | 0.00 | 79 | 1016.1 |
| 20260509175328 | 88 | 301 | 5.0 | 10.0 | 0.00 | 0.00 | 0.00 | 78 | 1016.2 |
| 20260509174344 | 87 | 274 | 6.0 | 12.0 | 0.00 | 0.00 | 0.00 | 77 | 1016.3 |
| 20260509173319 | 87 | 261 | 4.0 | 10.0 | 0.00 | 0.00 | 0.00 | 79 | 1016.4 |
| 20260509172320 | 86 | 260 | 7.0 | 11.0 | 0.00 | 0.00 | 0.00 | 79 | 1016.6 |
| 20260509171333 | 86 | 263 | 7.0 | 10.0 | 0.00 | 0.00 | 0.00 | 79 | 1016.5 |
| 20260509170339 | 87 | 260 | 5.0 | 13.0 | 0.00 | 0.00 | 0.00 | 79 | 1016.7 |
| 20260509165326 | 87 | 280 | 5.0 | 12.0 | 0.00 | 0.00 | 0.00 | 78 | 1016.6 |
| 20260509164321 | 86 | 274 | 6.0 | 10.0 | 0.00 | 0.00 | 0.00 | 80 | 1016.6 |
| 20260509163317 | 86 | 237 | 8.0 | 12.0 | 0.00 | 0.00 | 0.00 | 80 | 1016.6 |
| 20260509162334 | 86 | 261 | 6.0 | 11.0 | 0.00 | 0.00 | 0.00 | 80 | 1016.6 |
| 20260509161333 | 86 | 281 | 7.0 | 13.0 | 0.00 | 0.00 | 0.00 | 80 | 1016.5 |
| 20260509160340 | 86 | 258 | 6.0 | 15.0 | 0.00 | 0.00 | 0.00 | 79 | 1016.4 |
| 20260509155342 | 86 | 271 | 7.0 | 12.0 | 0.00 | 0.00 | 0.00 | 79 | 1016.4 |
| 20260509154356 | 86 | 257 | 6.0 | 11.0 | 0.00 | 0.00 | 0.00 | 81 | 1016.4 |
| 20260509153335 | 86 | 250 | 3.0 | 10.0 | 0.00 | 0.00 | 0.00 | 83 | 1016.5 |
| 20260509152331 | 85 | 266 | 4.0 | 11.0 | 0.00 | 0.00 | 0.00 | 83 | 1016.5 |
| 20260509151326 | 85 | 27 | 7.0 | 11.0 | 0.00 | 0.00 | 0.00 | 82 | 1016.5 |
| 20260509150356 | 85 | 280 | 9.0 | 15.0 | 0.00 | 0.00 | 0.00 | 82 | 1016.4 |
| 20260509145317 | 86 | 282 | 8.0 | 14.0 | 0.00 | 0.00 | 0.00 | 81 | 1016.4 |
| 20260509144352 | 85 | 245 | 4.0 | 12.0 | 0.00 | 0.00 | 0.00 | 83 | 1016.2 |
| 20260509143346 | 86 | 257 | 6.0 | 11.0 | 0.00 | 0.00 | 0.00 | 81 | 1016.2 |
| 20260509142320 | 85 | 257 | 4.0 | 14.0 | 0.00 | 0.00 | 0.00 | 82 | 1016.1 |
| 20260509141320 | 85 | 277 | 7.0 | 11.0 | 0.00 | 0.00 | 0.00 | 80 | 1016.0 |
| 20260509140347 | 85 | 261 | 7.0 | 12.0 | 0.00 | 0.00 | 0.00 | 81 | 1016.0 |
| 20260509135350 | 85 | 271 | 5.0 | 12.0 | 0.00 | 0.00 | 0.00 | 80 | 1016.0 |
| 20260509134327 | 85 | 271 | 5.0 | 12.0 | 0.00 | 0.00 | 0.00 | 80 | 1015.9 |
| 20260509133322 | 85 | 273 | 7.0 | 14.0 | 0.00 | 0.00 | 0.00 | 79 | 1015.8 |
| 20260509132339 | 85 | 264 | 6.0 | 12.0 | 0.00 | 0.00 | 0.00 | 80 | 1015.9 |
| 20260509131333 | 85 | 287 | 7.0 | 12.0 | 0.00 | 0.00 | 0.00 | 79 | 1015.8 |
| 20260509130344 | 84 | 307 | 4.0 | 11.0 | 0.00 | 0.00 | 0.00 | 81 | 1015.8 |
| 20260509125346 | 85 | 324 | 5.0 | 9.0 | 0.00 | 0.00 | 0.00 | 80 | 1015.8 |
| 20260509124341 | 84 | 310 | 3.0 | 9.0 | 0.00 | 0.00 | 0.00 | 81 | 1015.8 |
| 20260509123335 | 84 | 312 | 5.0 | 11.0 | 0.00 | 0.00 | 0.00 | 82 | 1015.8 |
| 20260509122356 | 83 | 251 | 4.0 | 12.0 | 0.00 | 0.00 | 0.00 | 83 | 1015.8 |
| 20260509121330 | 83 | 302 | 4.0 | 9.0 | 0.00 | 0.00 | 0.00 | 82 | 1015.7 |
| 20260509120336 | 83 | 264 | 6.0 | 13.0 | 0.00 | 0.00 | 0.00 | 83 | 1015.6 |
| 20260509115319 | 83 | 270 | 5.0 | 10.0 | 0.00 | 0.00 | 0.00 | 83 | 1015.5 |
| 20260509114318 | 83 | 276 | 6.0 | 11.0 | 0.00 | 0.00 | 0.00 | 82 | 1015.5 |
| 20260509113333 | 82 | 296 | 4.0 | 12.0 | 0.00 | 0.00 | 0.00 | 82 | 1015.5 |
| 20260509112329 | 82 | 268 | 3.0 | 10.0 | 0.00 | 0.00 | 0.00 | 83 | 1015.4 |
| 20260509111327 | 82 | 274 | 5.0 | 12.0 | 0.00 | 0.00 | 0.00 | 83 | 1015.3 |
| 20260509110333 | 81 | 266 | 6.0 | 12.0 | 0.00 | 0.00 | 0.00 | 83 | 1015.2 |
| 20260509105335 | 81 | 309 | 5.0 | 11.0 | 0.00 | 0.00 | 0.00 | 83 | 1015.1 |
| 20260509104331 | 81 | 263 | 6.0 | 10.0 | 0.00 | 0.00 | 0.00 | 82 | 1015.1 |
| 20260509103331 | 81 | 270 | 6.0 | 10.0 | 0.00 | 0.00 | 0.00 | 82 | 1015.1 |
| 20260509102347 | 81 | 275 | 4.0 | 11.0 | 0.00 | 0.00 | 0.00 | 83 | 1015.1 |
| 20260509101321 | 81 | 274 | 4.0 | 10.0 | 0.00 | 0.00 | 0.00 | 83 | 1015.1 |
| 20260509100331 | 81 | 244 | 6.0 | 11.0 | 0.00 | 0.00 | 0.00 | 83 | 1015.0 |
| 20260509095353 | 81 | 272 | 5.0 | 9.0 | 0.00 | 0.00 | 0.00 | 83 | 1015.1 |
| 20260509094348 | 81 | 274 | 4.0 | 8.0 | 0.00 | 0.00 | 0.00 | 83 | 1015.1 |
| 20260509093322 | 81 | 288 | 4.0 | 11.0 | 0.00 | 0.00 | 0.00 | 84 | 1015.0 |
| 20260509092322 | 81 | 286 | 2.0 | 8.0 | 0.00 | 0.00 | 0.00 | 83 | 1015.1 |
| 20260509091317 | 81 | 257 | 5.0 | 9.0 | 0.00 | 0.00 | 0.00 | 82 | 1015.0 |
| 20260509090404 | 81 | 275 | 3.0 | 10.0 | 0.00 | 0.00 | 0.00 | 82 | 1015.0 |
| 20260509085325 | 81 | 281 | 7.0 | 10.0 | 0.00 | 0.00 | 0.00 | 81 | 1015.0 |
| 20260509084344 | 81 | 257 | 4.0 | 10.0 | 0.00 | 0.00 | 0.00 | 83 | 1015.0 |
| 20260509083319 | 81 | 220 | 5.0 | 10.0 | 0.00 | 0.00 | 0.00 | 84 | 1015.1 |
| 20260509082356 | 81 | 264 | 4.0 | 11.0 | 0.00 | 0.00 | 0.00 | 84 | 1015.1 |
| 20260509081331 | 81 | 266 | 3.0 | 10.0 | 0.00 | 0.00 | 0.00 | 85 | 1015.1 |
| 20260509080401 | 81 | 257 | 5.0 | 10.0 | 0.00 | 0.00 | 0.00 | 85 | 1015.2 |
| 20260509075322 | 81 | 246 | 6.0 | 12.0 | 0.00 | 0.00 | 0.00 | 84 | 1015.1 |
| 20260509074318 | 81 | 260 | 6.0 | 10.0 | 0.00 | 0.00 | 0.00 | 83 | 1015.1 |
| 20260509073317 | 81 | 236 | 3.0 | 9.0 | 0.00 | 0.00 | 0.00 | 84 | 1015.3 |
| 20260509072334 | 81 | 253 | 6.0 | 10.0 | 0.00 | 0.00 | 0.00 | 83 | 1015.4 |
| 20260509071328 | 82 | 237 | 5.0 | 9.0 | 0.00 | 0.00 | 0.00 | 85 | 1015.3 |
| 20260509070335 | 82 | 241 | 4.0 | 10.0 | 0.00 | 0.00 | 0.00 | 85 | 1015.5 |
| 20260509065320 | 82 | 253 | 6.0 | 11.0 | 0.00 | 0.00 | 0.00 | 84 | 1015.5 |
| 20260509064335 | 82 | 251 | 5.0 | 11.0 | 0.00 | 0.00 | 0.00 | 84 | 1015.5 |
| 20260509063330 | 82 | 234 | 5.0 | 11.0 | 0.00 | 0.00 | 0.00 | 86 | 1015.6 |
| 20260509062327 | 82 | 217 | 5.0 | 11.0 | 0.00 | 0.00 | 0.00 | 86 | 1015.6 |
| 20260509061346 | 82 | 246 | 7.0 | 11.0 | 0.00 | 0.00 | 0.00 | 86 | 1015.7 |
| 20260509060332 | 82 | 239 | 5.0 | 11.0 | 0.00 | 0.00 | 0.00 | 86 | 1015.7 |
| 20260509055333 | 82 | 222 | 5.0 | 11.0 | 0.00 | 0.00 | 0.00 | 84 | 1015.7 |
| 20260509054333 | 82 | 255 | 5.0 | 10.0 | 0.00 | 0.00 | 0.00 | 85 | 1015.8 |
| 20260509053327 | 82 | 246 | 5.0 | 11.0 | 0.00 | 0.00 | 0.00 | 85 | 1015.8 |
| 20260509052324 | 82 | 210 | 6.0 | 12.0 | 0.00 | 0.00 | 0.00 | 84 | 1015.9 |
| 20260509051317 | 82 | 259 | 4.0 | 10.0 | 0.00 | 0.00 | 0.00 | 83 | 1016.1 |
| 20260509050348 | 82 | 265 | 5.0 | 11.0 | 0.00 | 0.00 | 0.00 | 82 | 1016.1 |
| 20260509045330 | 82 | 232 | 5.0 | 10.0 | 0.00 | 0.00 | 0.00 | 83 | 1016.2 |
| 20260509044325 | 82 | 267 | 4.0 | 10.0 | 0.00 | 0.00 | 0.00 | 83 | 1016.2 |
| 20260509043321 | 82 | 255 | 4.0 | 9.0 | 0.00 | 0.00 | 0.00 | 84 | 1016.3 |
| 20260509042321 | 82 | 277 | 5.0 | 9.0 | 0.00 | 0.00 | 0.00 | 84 | 1016.3 |
| 20260509041336 | 82 | 243 | 5.0 | 9.0 | 0.00 | 0.00 | 0.00 | 83 | 1016.3 |
| 20260509040343 | 82 | 236 | 5.0 | 8.0 | 0.00 | 0.00 | 0.00 | 82 | 1016.3 |
| 20260509035329 | 82 | 257 | 4.0 | 9.0 | 0.00 | 0.00 | 0.00 | 82 | 1016.4 |
| 20260509034323 | 82 | 226 | 4.0 | 8.0 | 0.00 | 0.00 | 0.00 | 82 | 1016.3 |
| 20260509033317 | 82 | 243 | 5.0 | 10.0 | 0.00 | 0.00 | 0.00 | 82 | 1016.3 |
| 20260509032333 | 83 | 255 | 4.0 | 8.0 | 0.00 | 0.00 | 0.00 | 83 | 1016.2 |
| 20260509031332 | 83 | 260 | 4.0 | 9.0 | 0.00 | 0.00 | 0.00 | 83 | 1016.2 |
| 20260509030339 | 83 | 244 | 4.0 | 8.0 | 0.00 | 0.00 | 0.00 | 82 | 1016.2 |
| 20260509025322 | 83 | 256 | 3.0 | 8.0 | 0.00 | 0.00 | 0.00 | 81 | 1016.1 |
| 20260509024321 | 83 | 218 | 2.0 | 6.0 | 0.00 | 0.00 | 0.00 | 81 | 1016.0 |
| 20260509023317 | 83 | 244 | 3.0 | 7.0 | 0.00 | 0.00 | 0.00 | 81 | 1016.0 |
| 20260509022334 | 83 | 268 | 5.0 | 8.0 | 0.00 | 0.00 | 0.00 | 80 | 1015.9 |
| 20260509021349 | 83 | 269 | 2.0 | 6.0 | 0.00 | 0.00 | 0.00 | 80 | 1015.9 |
| 20260509020339 | 83 | 224 | 3.0 | 6.0 | 0.00 | 0.00 | 0.00 | 80 | 1015.8 |
| 20260509015321 | 83 | 250 | 2.0 | 6.0 | 0.00 | 0.00 | 0.00 | 80 | 1015.7 |
| 20260509014316 | 83 | 218 | 1.0 | 6.0 | 0.00 | 0.00 | 0.00 | 80 | 1015.4 |
| 20260509013352 | 83 | 239 | 3.0 | 6.0 | 0.00 | 0.00 | 0.00 | 80 | 1015.4 |
| 20260509012331 | 83 | 240 | 3.0 | 6.0 | 0.00 | 0.00 | 0.00 | 80 | 1015.3 |
| 20260509011326 | 83 | 250 | 3.0 | 7.0 | 0.00 | 0.00 | 0.00 | 81 | 1015.2 |
| 20260509010333 | 83 | 259 | 3.0 | 7.0 | 0.00 | 0.00 | 0.00 | 80 | 1015.0 |
| 20260509005320 | 83 | 226 | 3.0 | 7.0 | 0.00 | 0.00 | 0.00 | 78 | 1015.0 |
| 20260509004335 | 83 | 226 | 4.0 | 6.0 | 0.00 | 0.00 | 0.00 | 79 | 1014.8 |
| 20260509003331 | 83 | 254 | 4.0 | 7.0 | 0.00 | 0.00 | 0.00 | 79 | 1014.7 |
| 20260509002328 | 83 | 257 | 2.0 | 7.0 | 0.00 | 0.00 | 0.00 | 78 | 1014.7 |
| 20260509001327 | 83 | 242 | 3.0 | 6.0 | 0.00 | 0.00 | 0.00 | 77 | 1014.7 |
| 20260509000355 | 84 | 290 | 2.0 | 4.0 | 0.00 | 0.00 | 0.00 | 77 | 1014.7 |
| 20260508235355 | 84 | 235 | 2.0 | 7.0 | 0.00 | 0.00 | 0.00 | 76 | 1014.5 |
| 20260508234329 | 85 | 267 | 3.0 | 6.0 | 0.00 | 0.00 | 0.00 | 75 | 1014.5 |
| 20260508233328 | 86 | 245 | 3.0 | 6.0 | 0.00 | 0.00 | 0.00 | 73 | 1014.3 |
| 20260508232325 | 86 | 276 | 0.0 | 4.0 | 0.00 | 0.00 | 0.00 | 72 | 1014.2 |
| 20260508231321 | 86 | 285 | 1.0 | 6.0 | 0.00 | 0.00 | 0.00 | 73 | 1014.2 |
| 20260508230331 | 87 | 265 | 0.0 | 4.0 | 0.00 | 0.00 | 0.00 | 72 | 1014.1 |
| 20260508225334 | 87 | 346 | 3.0 | 7.0 | 0.00 | 0.00 | 0.00 | 71 | 1014.2 |
| 20260508224329 | 87 | 352 | 0.0 | 4.0 | 0.00 | 0.00 | 0.00 | 72 | 1014.3 |
| 20260508223328 | 87 | 306 | 2.0 | 5.0 | 0.00 | 0.00 | 0.00 | 71 | 1014.3 |
| 20260508222325 | 88 | 288 | 2.0 | 5.0 | 0.00 | 0.00 | 0.00 | 72 | 1014.4 |
| 20260508221341 | 87 | 268 | 2.0 | 7.0 | 0.00 | 0.00 | 0.00 | 73 | 1014.4 |
| 20260508220406 | 87 | 307 | 3.0 | 6.0 | 0.00 | 0.00 | 0.00 | 71 | 1014.3 |
| 20260508215331 | 87 | 262 | 5.0 | 8.0 | 0.00 | 0.00 | 0.00 | 71 | 1014.4 |
| 20260508214326 | 87 | 293 | 4.0 | 8.0 | 0.00 | 0.00 | 0.00 | 73 | 1014.4 |
| 20260508213321 | 87 | 252 | 5.0 | 8.0 | 0.00 | 0.00 | 0.00 | 73 | 1014.5 |
| 20260508212316 | 87 | 337 | 6.0 | 9.0 | 0.00 | 0.00 | 0.00 | 72 | 1014.6 |
| 20260508211335 | 87 | 260 | 5.0 | 9.0 | 0.00 | 0.00 | 0.00 | 71 | 1014.8 |
| 20260508210343 | 87 | 328 | 6.0 | 11.0 | 0.00 | 0.00 | 0.00 | 72 | 1014.9 |
| 20260508205344 | 87 | 287 | 3.0 | 9.0 | 0.00 | 0.00 | 0.00 | 71 | 1015.1 |
| 20260508204318 | 87 | 259 | 3.0 | 9.0 | 0.00 | 0.00 | 0.00 | 71 | 1015.1 |
| 20260508203317 | 87 | 249 | 5.0 | 9.0 | 0.00 | 0.00 | 0.00 | 72 | 1015.2 |
| 20260508202333 | 87 | 253 | 5.0 | 10.0 | 0.00 | 0.00 | 0.00 | 71 | 1015.4 |
| 20260508201328 | 87 | 262 | 5.0 | 11.0 | 0.00 | 0.00 | 0.00 | 70 | 1015.5 |
| 20260508200339 | 87 | 246 | 6.0 | 12.0 | 0.00 | 0.00 | 0.00 | 71 | 1015.5 |
| 20260508195322 | 88 | 262 | 5.0 | 12.0 | 0.00 | 0.00 | 0.00 | 72 | 1015.5 |
| 20260508194335 | 86 | 274 | 5.0 | 12.0 | 0.00 | 0.00 | 0.00 | 73 | 1015.7 |
| 20260508193330 | 86 | 229 | 9.0 | 12.0 | 0.00 | 0.00 | 0.00 | 71 | 1015.7 |
| 20260508192330 | 87 | 248 | 8.0 | 14.0 | 0.00 | 0.00 | 0.00 | 70 | 1015.9 |